Time,TemperatureF,DewpointF,PressureIn,WindDirection,WindDirectionDegrees,WindSpeedMPH,WindSpeedGustMPH,Humidity,HourlyPrecipIn,Conditions,Clouds,dailyrainin,SoftwareType,DateUTC
2013-06-24 00:01:00,70.8,70.8,30.01,West,273,2.6,2.6,100,0.00,,---,0.00,VWS V14.01,2013-06-24 04:01:00,
2013-06-24 00:06:00,70.3,70.3,30.01,SW,228,2.7,8.3,100,0.00,,---,0.00,VWS V14.01,2013-06-24 04:06:00,
2013-06-24 00:11:00,70.9,70.9,30.01,SW,226,8.1,8.1,100,0.00,,---,0.00,VWS V14.01,2013-06-24 04:11:00,
2013-06-24 00:16:00,71.0,71.0,30.01,WSW,256,5.8,5.8,100,0.00,,---,0.00,VWS V14.01,2013-06-24 04:16:00,
2013-06-24 00:21:00,71.5,71.5,30.00,West,273,2.9,4.5,100,0.00,,---,0.00,VWS V14.01,2013-06-24 04:21:00,
2013-06-24 00:26:00,70.8,70.8,30.01,South,191,0.0,1.9,100,0.00,,---,0.00,VWS V14.01,2013-06-24 04:26:00,
2013-06-24 00:31:00,70.8,70.8,30.01,North,359,0.0,7.2,100,0.00,,---,0.00,VWS V14.01,2013-06-24 04:31:00,
2013-06-24 00:36:00,69.9,69.9,30.01,WNW,300,4.1,6.4,100,0.00,,---,0.00,VWS V14.01,2013-06-24 04:36:00,
2013-06-24 00:41:00,70.8,70.8,30.01,WNW,290,1.8,6.1,100,0.00,,---,0.00,VWS V14.01,2013-06-24 04:41:00,
2013-06-24 00:46:00,70.4,70.4,30.01,WNW,291,0.5,7.1,100,0.00,,---,0.00,VWS V14.01,2013-06-24 04:46:00,
2013-06-24 00:51:00,70.7,70.7,30.01,SE,141,2.0,3.2,100,0.00,,---,0.00,VWS V14.01,2013-06-24 04:51:00,
2013-06-24 00:56:00,70.1,70.1,30.01,WNW,288,0.8,6.9,100,45.75,,---,0.00,VWS V14.01,2013-06-24 04:56:00,
2013-06-24 01:01:00,70.9,70.9,30.01,SE,146,0.5,9.1,100,0.00,,---,0.00,VWS V14.01,2013-06-24 05:01:00,
2013-06-24 01:06:00,70.6,70.6,30.01,ESE,120,2.5,5.0,100,0.00,,---,0.00,VWS V14.01,2013-06-24 05:06:00,
2013-06-24 01:11:00,70.5,70.5,30.01,West,262,0.0,0.0,100,0.00,,---,0.00,VWS V14.01,2013-06-24 05:11:00,
2013-06-24 01:16:00,70.7,70.7,30.01,North,359,0.0,0.0,100,0.00,,---,0.00,VWS V14.01,2013-06-24 05:16:00,
2013-06-24 01:21:00,70.8,70.8,30.01,WSW,238,0.4,3.9,100,0.00,,---,0.00,VWS V14.01,2013-06-24 05:21:00,
2013-06-24 01:26:00,70.5,70.5,30.01,SW,228,2.2,4.5,100,0.00,,---,0.00,VWS V14.01,2013-06-24 05:26:00,
2013-06-24 01:31:00,70.6,70.6,30.01,WSW,255,0.0,0.0,100,0.00,,---,0.00,VWS V14.01,2013-06-24 05:31:00,
2013-06-24 01:36:00,70.7,70.7,30.01,North,359,2.0,5.0,100,0.00,,---,0.00,VWS V14.01,2013-06-24 05:36:00,
2013-06-24 01:41:00,71.0,71.0,30.01,SSW,212,0.0,0.0,100,0.00,,---,0.00,VWS V14.01,2013-06-24 05:41:00,
2013-06-24 01:46:00,70.5,70.5,30.00,WSW,246,2.2,3.0,100,0.00,,---,0.00,VWS V14.01,2013-06-24 05:46:00,
2013-06-24 01:51:00,70.7,70.7,30.00,West,273,0.0,0.0,100,0.00,,---,0.00,VWS V14.01,2013-06-24 05:51:00,
2013-06-24 01:56:00,70.8,70.8,30.00,SSE,167,0.0,0.0,100,0.00,,---,0.00,VWS V14.01,2013-06-24 05:56:00,
2013-06-24 02:01:00,69.9,69.9,30.00,North,359,0.0,4.8,100,0.00,,---,0.00,VWS V14.01,2013-06-24 06:01:00,
2013-06-24 02:06:00,70.8,70.8,30.00,North,359,0.0,0.0,100,0.00,,---,0.00,VWS V14.01,2013-06-24 06:06:00,
2013-06-24 02:11:00,70.3,70.3,30.00,West,266,2.9,5.3,100,0.00,,---,0.00,VWS V14.01,2013-06-24 06:11:00,
2013-06-24 02:17:00,70.5,70.5,30.00,WNW,291,0.7,2.5,100,0.00,,---,0.00,VWS V14.01,2013-06-24 06:17:00,
2013-06-24 02:22:00,71.3,71.3,30.00,SE,134,1.3,4.5,100,0.00,,---,0.00,VWS V14.01,2013-06-24 06:22:00,
2013-06-24 02:27:00,70.7,70.7,30.00,NW,308,3.2,3.2,100,0.00,,---,0.00,VWS V14.01,2013-06-24 06:27:00,
2013-06-24 02:32:00,70.9,70.9,30.00,NNE,27,3.9,6.6,100,0.00,,---,0.00,VWS V14.01,2013-06-24 06:32:00,
2013-06-24 02:37:00,70.5,70.5,30.00,NNE,22,0.9,0.9,100,0.00,,---,0.00,VWS V14.01,2013-06-24 06:37:00,
2013-06-24 02:42:00,70.8,70.8,30.00,North,359,2.5,4.8,100,0.00,,---,0.00,VWS V14.01,2013-06-24 06:42:00,
2013-06-24 02:47:00,70.5,70.5,30.00,North,359,1.7,3.4,100,0.00,,---,0.00,VWS V14.01,2013-06-24 06:47:00,
2013-06-24 02:52:00,70.5,70.5,30.00,SE,145,2.4,2.8,100,0.00,,---,0.00,VWS V14.01,2013-06-24 06:52:00,
2013-06-24 02:57:00,71.0,71.0,30.00,North,359,0.0,0.0,100,0.00,,---,0.00,VWS V14.01,2013-06-24 06:57:00,
2013-06-24 03:02:00,70.9,70.9,30.00,NNE,17,0.0,0.0,100,0.00,,---,0.00,VWS V14.01,2013-06-24 07:02:00,
2013-06-24 03:07:00,71.7,71.7,30.00,WSW,250,3.9,6.0,100,0.00,,---,0.00,VWS V14.01,2013-06-24 07:07:00,
2013-06-24 03:12:00,70.7,70.7,30.00,NNW,332,0.0,5.2,100,0.00,,---,0.00,VWS V14.01,2013-06-24 07:12:00,
2013-06-24 03:18:00,71.2,71.2,30.00,North,359,0.0,3.4,100,0.00,,---,0.00,VWS V14.01,2013-06-24 07:18:00,
2013-06-24 03:23:00,71.3,71.3,30.00,SW,222,0.0,0.6,100,0.00,,---,0.00,VWS V14.01,2013-06-24 07:23:00,
2013-06-24 03:28:00,69.9,69.9,29.99,North,359,1.3,2.0,100,0.00,,---,0.00,VWS V14.01,2013-06-24 07:28:00,
2013-06-24 03:33:00,70.1,70.1,29.99,North,359,0.0,0.0,100,0.00,,---,0.00,VWS V14.01,2013-06-24 07:33:00,
2013-06-24 03:38:00,71.4,71.4,29.99,North,359,0.0,0.0,100,0.00,,---,0.00,VWS V14.01,2013-06-24 07:38:00,
2013-06-24 03:43:00,70.9,70.9,29.99,North,359,0.0,0.0,100,0.00,,---,0.00,VWS V14.01,2013-06-24 07:43:00,
2013-06-24 03:48:00,71.1,71.1,29.99,North,359,0.0,0.0,100,0.00,,---,0.00,VWS V14.01,2013-06-24 07:48:00,
2013-06-24 03:54:00,70.2,70.2,29.99,North,359,0.0,0.0,100,0.00,,---,0.00,VWS V14.01,2013-06-24 07:54:00,
2013-06-24 03:59:00,70.6,70.6,29.99,North,359,0.0,0.0,100,0.00,,---,0.00,VWS V14.01,2013-06-24 07:59:00,
2013-06-24 04:04:00,70.6,70.6,29.99,North,359,0.0,0.0,100,0.00,,---,0.00,VWS V14.01,2013-06-24 08:04:00,
2013-06-24 04:09:00,70.4,70.4,29.99,North,359,0.0,0.0,100,0.00,,---,0.00,VWS V14.01,2013-06-24 08:09:00,
2013-06-24 04:14:00,70.7,70.7,29.99,North,359,0.0,0.0,100,0.00,,---,0.00,VWS V14.01,2013-06-24 08:14:00,
2013-06-24 04:19:00,70.5,70.5,29.99,WNW,290,0.0,1.5,100,0.00,,---,0.00,VWS V14.01,2013-06-24 08:19:00,
2013-06-24 04:24:00,70.4,70.4,29.99,WNW,290,0.0,0.0,100,0.00,,---,0.00,VWS V14.01,2013-06-24 08:24:00,
2013-06-24 04:29:00,70.9,70.9,29.99,WNW,290,0.0,0.0,100,0.00,,---,0.00,VWS V14.01,2013-06-24 08:29:00,
2013-06-24 04:34:00,70.2,70.2,29.99,WNW,290,0.0,1.1,100,0.00,,---,0.00,VWS V14.01,2013-06-24 08:34:00,
2013-06-24 04:39:00,70.5,70.5,29.99,North,1,1.1,1.1,100,0.00,,---,0.00,VWS V14.01,2013-06-24 08:39:00,
2013-06-24 04:44:00,70.5,70.5,29.99,East,89,0.0,0.0,100,0.00,,---,0.00,VWS V14.01,2013-06-24 08:44:00,
2013-06-24 04:49:00,70.7,70.7,29.99,East,89,0.0,0.0,100,0.00,,---,0.00,VWS V14.01,2013-06-24 08:49:00,
2013-06-24 04:54:00,70.6,70.6,30.00,East,89,0.0,0.0,100,0.00,,---,0.00,VWS V14.01,2013-06-24 08:54:00,
2013-06-24 04:59:00,70.9,70.9,29.99,East,89,0.0,0.0,100,0.00,,---,0.00,VWS V14.01,2013-06-24 08:59:00,
2013-06-24 05:04:00,71.1,71.1,29.99,East,89,0.0,0.0,100,0.00,,---,0.00,VWS V14.01,2013-06-24 09:04:00,
2013-06-24 05:09:00,71.0,71.0,30.00,WSW,248,0.0,0.0,100,0.00,,---,0.00,VWS V14.01,2013-06-24 09:09:00,
2013-06-24 05:14:00,70.9,70.9,30.00,ESE,105,2.1,4.0,100,0.00,,---,0.00,VWS V14.01,2013-06-24 09:14:00,
2013-06-24 05:18:00,74.8,62.1,29.94,WNW,302,1.5,2.0,65,0.00,,---,0.00,VWS V14.01,2013-06-24 09:18:00,
2013-06-24 05:19:00,70.0,70.0,30.00,SW,229,2.1,4.4,100,0.00,,---,0.00,VWS V14.01,2013-06-24 09:19:00,
2013-06-24 05:24:00,69.8,69.8,30.00,North,359,6.5,6.5,100,0.00,,---,0.00,VWS V14.01,2013-06-24 09:24:00,
2013-06-24 05:29:00,70.6,70.6,30.00,WNW,283,0.0,0.0,100,0.00,,---,0.00,VWS V14.01,2013-06-24 09:29:00,
2013-06-24 05:34:00,70.7,70.7,30.00,WNW,283,0.0,0.0,100,0.00,,---,0.00,VWS V14.01,2013-06-24 09:34:00,
2013-06-24 05:40:00,69.8,69.8,30.00,ESE,120,1.6,2.6,100,0.00,,---,0.00,VWS V14.01,2013-06-24 09:40:00,
2013-06-24 05:45:00,69.7,69.7,30.00,ESE,120,0.0,0.0,100,0.00,,---,0.00,VWS V14.01,2013-06-24 09:45:00,
2013-06-24 05:50:00,70.0,70.0,30.00,ESE,120,1.2,1.2,100,0.00,,---,0.00,VWS V14.01,2013-06-24 09:50:00,
2013-06-24 05:55:00,70.7,70.7,30.00,West,271,0.0,0.0,100,0.00,,---,0.00,VWS V14.01,2013-06-24 09:55:00,
2013-06-24 06:00:00,70.1,70.1,30.00,West,271,0.0,0.0,100,0.00,,---,0.00,VWS V14.01,2013-06-24 10:00:00,
2013-06-24 06:05:00,69.8,69.8,30.00,SE,134,0.0,0.0,100,0.00,,---,0.00,VWS V14.01,2013-06-24 10:05:00,
2013-06-24 06:10:00,69.5,69.5,30.00,SE,134,0.0,0.0,100,0.00,,---,0.00,VWS V14.01,2013-06-24 10:10:00,
2013-06-24 06:15:00,69.6,69.6,30.00,SE,134,0.0,0.0,100,0.00,,---,0.00,VWS V14.01,2013-06-24 10:15:00,
2013-06-24 06:20:00,69.5,69.5,30.00,SE,134,0.0,0.0,100,0.00,,---,0.00,VWS V14.01,2013-06-24 10:20:00,
2013-06-24 06:25:00,71.0,71.0,30.00,SE,134,0.0,0.0,100,0.00,,---,0.00,VWS V14.01,2013-06-24 10:25:00,
2013-06-24 06:30:00,70.7,70.7,30.00,SE,134,0.0,0.0,100,0.00,,---,0.00,VWS V14.01,2013-06-24 10:30:00,
2013-06-24 06:36:00,70.2,70.2,30.00,SE,134,0.0,0.0,100,0.00,,---,0.00,VWS V14.01,2013-06-24 10:36:00,
2013-06-24 06:41:00,70.7,70.7,30.00,WNW,284,0.0,0.0,100,0.00,,---,0.00,VWS V14.01,2013-06-24 10:41:00,
2013-06-24 06:46:00,71.1,71.1,30.00,North,359,0.0,0.0,100,0.00,,---,0.00,VWS V14.01,2013-06-24 10:46:00,
2013-06-24 06:51:00,70.2,70.2,30.00,NW,308,0.0,0.0,100,0.00,,---,0.00,VWS V14.01,2013-06-24 10:51:00,
2013-06-24 06:56:00,69.9,69.9,30.00,West,259,3.8,5.2,100,0.00,,---,0.00,VWS V14.01,2013-06-24 10:56:00,
2013-06-24 07:01:00,70.4,70.4,30.00,North,359,0.0,0.0,100,0.09,,---,0.00,VWS V14.01,2013-06-24 11:01:00,
2013-06-24 07:06:00,70.3,70.3,30.00,SE,141,0.0,0.0,100,0.00,,---,0.00,VWS V14.01,2013-06-24 11:06:00,
2013-06-24 07:11:00,70.9,70.9,30.00,SE,141,0.0,0.0,100,0.00,,---,0.00,VWS V14.01,2013-06-24 11:11:00,
2013-06-24 07:16:00,70.7,70.7,30.00,NNW,339,0.0,0.0,100,0.00,,---,0.00,VWS V14.01,2013-06-24 11:16:00,
2013-06-24 07:21:00,70.7,70.7,30.00,SSW,194,2.7,4.7,100,0.00,,---,0.00,VWS V14.01,2013-06-24 11:21:00,
2013-06-24 07:26:00,71.9,71.9,30.00,WNW,292,1.6,1.6,100,0.00,,---,0.00,VWS V14.01,2013-06-24 11:26:00,
2013-06-24 07:31:00,71.2,71.2,30.00,WNW,292,0.0,0.0,100,0.00,,---,0.00,VWS V14.01,2013-06-24 11:31:00,
2013-06-24 07:36:00,70.8,70.8,30.00,SW,229,0.0,2.9,100,0.00,,---,0.00,VWS V14.01,2013-06-24 11:36:00,
2013-06-24 07:42:00,71.7,71.7,30.00,North,359,0.0,6.5,100,0.00,,---,0.00,VWS V14.01,2013-06-24 11:42:00,
2013-06-24 07:47:00,71.6,71.6,30.00,West,269,0.0,0.0,100,0.00,,---,0.00,VWS V14.01,2013-06-24 11:47:00,
2013-06-24 07:52:00,72.3,72.3,30.00,WSW,246,7.6,8.3,100,0.00,,---,0.00,VWS V14.01,2013-06-24 11:52:00,
2013-06-24 07:57:00,72.0,72.0,30.00,SSW,212,0.0,6.1,100,0.00,,---,0.00,VWS V14.01,2013-06-24 11:57:00,
2013-06-24 08:02:00,72.0,72.0,30.00,SSW,212,0.0,0.0,100,0.00,,---,0.00,VWS V14.01,2013-06-24 12:02:00,
2013-06-24 08:07:00,72.1,72.1,30.00,SSW,212,0.0,0.0,100,0.00,,---,0.00,VWS V14.01,2013-06-24 12:07:00,
2013-06-24 08:12:00,72.6,72.6,30.01,WSW,240,5.7,7.6,100,0.00,,---,0.00,VWS V14.01,2013-06-24 12:12:00,
2013-06-24 08:17:00,72.9,72.9,30.00,West,267,0.0,0.0,100,0.00,,---,0.00,VWS V14.01,2013-06-24 12:17:00,
2013-06-24 08:22:00,73.7,73.7,30.00,West,267,0.0,0.0,100,0.00,,---,0.00,VWS V14.01,2013-06-24 12:22:00,
2013-06-24 08:27:00,72.9,72.9,30.01,West,267,0.0,0.0,100,0.00,,---,0.00,VWS V14.01,2013-06-24 12:27:00,
2013-06-24 08:32:00,73.5,73.5,30.01,NNE,13,0.0,0.0,100,0.00,,---,0.00,VWS V14.01,2013-06-24 12:32:00,
2013-06-24 08:37:00,73.7,73.7,30.01,NNE,13,0.0,0.0,100,0.00,,---,0.00,VWS V14.01,2013-06-24 12:37:00,
2013-06-24 08:42:00,73.9,73.8,30.01,North,359,0.0,5.1,100,0.00,,---,0.00,VWS V14.01,2013-06-24 12:42:00,
2013-06-24 08:47:00,73.8,73.4,30.01,North,359,0.0,0.0,99,0.00,,---,0.00,VWS V14.01,2013-06-24 12:47:00,
2013-06-24 08:52:00,74.4,73.6,30.01,North,359,0.0,0.0,97,0.00,,---,0.00,VWS V14.01,2013-06-24 12:52:00,
2013-06-24 08:57:00,74.3,73.4,30.01,North,359,0.0,0.0,97,0.00,,---,0.00,VWS V14.01,2013-06-24 12:57:00,
2013-06-24 09:02:00,74.8,74.0,30.00,North,359,0.0,0.0,97,0.00,,---,0.00,VWS V14.01,2013-06-24 13:02:00,
2013-06-24 09:07:00,75.8,74.5,30.00,NNW,330,0.0,0.0,96,0.00,,---,0.00,VWS V14.01,2013-06-24 13:07:00,
2013-06-24 09:12:00,75.0,73.3,30.00,NNW,330,0.0,0.0,94,0.00,,---,0.00,VWS V14.01,2013-06-24 13:12:00,
2013-06-24 09:18:00,75.9,74.0,30.00,NNW,330,0.0,8.1,94,0.00,,---,0.00,VWS V14.01,2013-06-24 13:18:00,
2013-06-24 09:23:00,76.7,73.2,30.00,WSW,249,0.0,0.0,89,0.00,,---,0.00,VWS V14.01,2013-06-24 13:23:00,
2013-06-24 09:28:00,75.8,71.8,30.00,WSW,249,0.0,0.0,87,0.00,,---,0.00,VWS V14.01,2013-06-24 13:28:00,
2013-06-24 09:33:00,76.4,71.7,30.00,WSW,249,0.0,0.0,85,0.00,,---,0.00,VWS V14.01,2013-06-24 13:33:00,
2013-06-24 09:38:00,76.5,70.9,30.00,WSW,249,0.0,0.0,83,0.00,,---,0.00,VWS V14.01,2013-06-24 13:38:00,
2013-06-24 09:43:00,76.9,70.7,30.00,WSW,249,0.0,0.0,81,0.00,,---,0.00,VWS V14.01,2013-06-24 13:43:00,
2013-06-24 09:48:00,77.0,71.2,30.00,WSW,249,0.0,0.0,82,0.00,,---,0.00,VWS V14.01,2013-06-24 13:48:00,
2013-06-24 09:53:00,78.5,71.9,30.00,WSW,249,0.0,0.0,80,0.00,,---,0.00,VWS V14.01,2013-06-24 13:53:00,
2013-06-24 09:58:00,78.3,71.9,30.00,WSW,249,0.0,0.0,81,0.00,,---,0.00,VWS V14.01,2013-06-24 13:58:00,
2013-06-24 10:03:00,79.0,72.2,30.00,WSW,249,0.0,0.0,80,0.00,,---,0.00,VWS V14.01,2013-06-24 14:03:00,
2013-06-24 10:08:00,78.1,70.5,30.00,NW,312,0.0,0.0,77,0.00,,---,0.00,VWS V14.01,2013-06-24 14:08:00,
2013-06-24 10:13:00,79.2,71.2,30.00,North,359,0.0,7.0,77,0.00,,---,0.00,VWS V14.01,2013-06-24 14:13:00,
2013-06-24 10:18:00,79.3,71.3,30.00,North,353,0.0,0.0,77,0.00,,---,0.00,VWS V14.01,2013-06-24 14:18:00,
2013-06-24 10:23:00,79.0,69.9,30.00,North,353,0.0,0.0,74,0.00,,---,0.00,VWS V14.01,2013-06-24 14:23:00,
2013-06-24 10:28:00,80.2,70.5,30.00,North,353,0.0,0.0,72,0.00,,---,0.00,VWS V14.01,2013-06-24 14:28:00,
2013-06-24 10:34:00,80.4,70.0,29.99,North,353,0.0,0.0,71,0.00,,---,0.00,VWS V14.01,2013-06-24 14:34:00,
2013-06-24 10:39:00,80.8,70.0,30.00,West,277,1.2,9.1,70,0.00,,---,0.00,VWS V14.01,2013-06-24 14:39:00,
2013-06-24 10:44:00,81.2,70.1,30.00,West,281,6.2,8.1,69,0.00,,---,0.00,VWS V14.01,2013-06-24 14:44:00,
2013-06-24 10:49:00,81.2,69.0,30.00,WSW,257,8.0,10.8,67,0.00,,---,0.00,VWS V14.01,2013-06-24 14:49:00,
2013-06-24 10:54:00,81.1,69.8,30.00,North,359,3.2,8.2,68,0.00,,---,0.00,VWS V14.01,2013-06-24 14:54:00,
2013-06-24 10:59:00,81.7,68.7,30.00,North,359,0.0,0.0,65,0.00,,---,0.00,VWS V14.01,2013-06-24 14:59:00,
2013-06-24 11:04:00,81.5,68.2,29.99,West,266,9.1,9.1,64,0.00,,---,0.00,VWS V14.01,2013-06-24 15:04:00,
2013-06-24 11:09:00,81.3,68.9,30.00,WNW,298,4.3,4.8,66,0.00,,---,0.00,VWS V14.01,2013-06-24 15:09:00,
2013-06-24 11:14:00,83.3,70.0,29.99,NNW,345,2.9,2.9,64,0.00,,---,0.00,VWS V14.01,2013-06-24 15:14:00,
2013-06-24 11:19:00,81.6,67.4,29.99,West,273,8.3,9.5,62,0.00,,---,0.00,VWS V14.01,2013-06-24 15:19:00,
2013-06-24 11:24:00,82.7,69.1,29.99,SW,225,4.3,7.8,64,0.00,,---,0.00,VWS V14.01,2013-06-24 15:24:00,
2013-06-24 11:29:00,82.3,68.9,29.99,West,271,6.8,6.8,64,0.00,,---,0.00,VWS V14.01,2013-06-24 15:29:00,
2013-06-24 11:35:00,82.2,66.7,29.99,West,267,3.7,7.3,59,0.00,,---,0.00,VWS V14.01,2013-06-24 15:35:00,
2013-06-24 11:40:00,82.9,69.1,29.99,SW,231,5.7,7.5,63,0.00,,---,0.00,VWS V14.01,2013-06-24 15:40:00,
2013-06-24 11:45:00,82.3,67.2,29.99,South,169,3.4,9.7,60,0.00,,---,0.00,VWS V14.01,2013-06-24 15:45:00,
2013-06-24 11:50:00,83.4,67.9,29.99,South,170,2.4,9.4,60,0.00,,---,0.00,VWS V14.01,2013-06-24 15:50:00,
2013-06-24 11:55:00,83.2,68.6,29.99,West,280,7.4,7.9,61,45.71,,---,0.00,VWS V14.01,2013-06-24 15:55:00,
2013-06-24 12:00:00,84.1,68.2,29.99,SE,142,8.8,8.8,59,0.00,,---,0.00,VWS V14.01,2013-06-24 16:00:00,
2013-06-24 12:05:00,83.6,66.9,29.99,ESE,114,3.7,4.3,57,0.00,,---,0.00,VWS V14.01,2013-06-24 16:05:00,
2013-06-24 12:10:00,84.3,66.7,29.99,NNW,328,4.0,4.0,56,0.00,,---,0.00,VWS V14.01,2013-06-24 16:10:00,
2013-06-24 12:15:00,85.5,68.6,29.99,WSW,243,1.1,6.6,57,0.00,,---,0.00,VWS V14.01,2013-06-24 16:15:00,
2013-06-24 12:20:00,84.7,65.5,29.99,WNW,284,8.9,11.7,53,0.00,,---,0.00,VWS V14.01,2013-06-24 16:20:00,
2013-06-24 12:25:00,84.9,66.8,29.99,West,277,5.6,6.8,55,0.00,,---,0.00,VWS V14.01,2013-06-24 16:25:00,
2013-06-24 12:30:00,84.9,64.3,29.99,NNW,333,9.3,9.3,50,0.00,,---,0.00,VWS V14.01,2013-06-24 16:30:00,
2013-06-24 12:35:00,85.0,66.3,29.99,West,276,3.1,4.3,54,0.00,,---,0.00,VWS V14.01,2013-06-24 16:35:00,
2013-06-24 12:40:00,86.5,66.5,29.99,NW,314,2.7,4.2,52,0.00,,---,0.00,VWS V14.01,2013-06-24 16:40:00,
2013-06-24 12:45:00,84.6,63.7,29.99,North,359,1.7,6.4,50,0.00,,---,0.00,VWS V14.01,2013-06-24 16:45:00,
2013-06-24 12:50:00,85.5,64.9,29.99,NW,323,4.2,7.5,50,0.00,,---,0.00,VWS V14.01,2013-06-24 16:50:00,
2013-06-24 12:56:00,85.9,64.7,29.98,West,277,4.8,10.6,49,0.00,,---,0.00,VWS V14.01,2013-06-24 16:56:00,
2013-06-24 13:01:00,85.7,64.4,29.98,WNW,284,2.9,8.6,49,0.00,,---,0.00,VWS V14.01,2013-06-24 17:01:00,
2013-06-24 13:06:00,86.6,64.7,29.98,NW,307,8.3,10.9,48,0.00,,---,0.00,VWS V14.01,2013-06-24 17:06:00,
2013-06-24 13:11:00,86.2,63.7,29.98,NNW,346,6.4,8.0,47,0.00,,---,0.00,VWS V14.01,2013-06-24 17:11:00,
2013-06-24 13:16:00,85.7,64.1,29.98,WNW,284,7.9,8.0,49,45.66,,---,0.00,VWS V14.01,2013-06-24 17:16:00,
2013-06-24 13:21:00,86.4,64.0,29.98,NW,305,7.2,10.7,47,0.00,,---,0.00,VWS V14.01,2013-06-24 17:21:00,
2013-06-24 13:26:00,86.3,62.6,29.98,NNW,339,8.0,13.2,45,0.00,,---,0.00,VWS V14.01,2013-06-24 17:26:00,
2013-06-24 13:31:00,87.0,62.1,29.98,West,280,7.1,13.0,43,0.00,,---,0.00,VWS V14.01,2013-06-24 17:31:00,
2013-06-24 13:36:00,86.6,62.2,29.97,West,277,7.7,11.1,44,0.00,,---,0.00,VWS V14.01,2013-06-24 17:36:00,
2013-06-24 13:41:00,86.7,63.0,29.97,WNW,294,8.3,8.5,45,0.00,,---,0.00,VWS V14.01,2013-06-24 17:41:00,
2013-06-24 13:46:00,86.9,62.6,29.97,NW,308,10.4,10.4,44,0.00,,---,0.00,VWS V14.01,2013-06-24 17:46:00,
2013-06-24 13:51:00,87.0,62.8,29.97,WSW,249,7.7,9.4,44,0.00,,---,0.00,VWS V14.01,2013-06-24 17:51:00,
2013-06-24 13:56:00,86.1,63.3,29.96,West,264,5.8,5.8,47,0.00,,---,0.00,VWS V14.01,2013-06-24 17:56:00,
2013-06-24 14:01:00,86.5,63.0,29.95,NNW,336,6.4,6.4,46,0.00,,---,0.00,VWS V14.01,2013-06-24 18:01:00,
2013-06-24 14:06:00,86.6,64.2,29.95,WSW,248,2.4,4.4,47,0.00,,---,0.00,VWS V14.01,2013-06-24 18:06:00,
2013-06-24 14:11:00,87.1,62.5,29.95,WSW,257,5.2,7.8,44,0.00,,---,0.00,VWS V14.01,2013-06-24 18:11:00,
2013-06-24 14:16:00,86.5,63.1,29.95,North,350,2.2,5.7,46,0.00,,---,0.00,VWS V14.01,2013-06-24 18:16:00,
2013-06-24 14:21:00,86.1,62.9,29.95,SSW,197,5.0,5.2,46,0.00,,---,0.00,VWS V14.01,2013-06-24 18:21:00,
2013-06-24 14:27:00,87.2,64.3,29.94,NW,325,3.2,9.8,47,0.00,,---,0.00,VWS V14.01,2013-06-24 18:27:00,
2013-06-24 14:31:00,86.1,63.6,29.94,West,267,7.4,7.4,47,0.00,,---,0.00,VWS V14.01,2013-06-24 18:31:00,
2013-06-24 14:37:00,86.3,64.3,29.94,West,262,2.9,8.6,48,0.00,,---,0.00,VWS V14.01,2013-06-24 18:37:00,
2013-06-24 14:42:00,85.5,63.8,29.93,NNW,332,0.2,2.4,48,0.00,,---,0.00,VWS V14.01,2013-06-24 18:42:00,
2013-06-24 14:47:00,85.3,64.4,29.93,WNW,284,2.7,2.9,50,0.00,,---,0.00,VWS V14.01,2013-06-24 18:47:00,
2013-06-24 14:52:00,85.3,64.5,29.93,West,266,5.3,7.1,50,0.00,,---,0.00,VWS V14.01,2013-06-24 18:52:00,
2013-06-24 14:57:00,84.3,63.6,29.93,SW,225,3.2,6.7,50,0.00,,---,0.00,VWS V14.01,2013-06-24 18:57:00,
2013-06-24 15:02:00,85.2,65.0,29.94,NW,322,8.3,8.7,51,0.00,,---,0.00,VWS V14.01,2013-06-24 19:02:00,
2013-06-24 15:07:00,85.4,66.0,29.93,West,277,3.4,3.4,52,0.00,,---,0.00,VWS V14.01,2013-06-24 19:07:00,
2013-06-24 15:12:00,84.6,65.3,29.93,North,359,0.0,0.0,52,0.00,,---,0.00,VWS V14.01,2013-06-24 19:12:00,
2013-06-24 15:18:00,84.8,66.2,29.93,WNW,283,3.5,3.5,54,0.00,,---,0.00,VWS V14.01,2013-06-24 19:18:00,
2013-06-24 15:23:00,83.9,66.0,29.93,West,269,3.6,8.9,55,0.00,,---,0.00,VWS V14.01,2013-06-24 19:23:00,
2013-06-24 15:28:00,83.3,66.4,29.94,SW,235,10.9,12.6,57,0.00,,---,0.00,VWS V14.01,2013-06-24 19:28:00,
2013-06-24 15:33:00,83.0,66.7,29.93,SW,215,1.7,1.9,58,0.00,,---,0.00,VWS V14.01,2013-06-24 19:33:00,
2013-06-24 15:38:00,81.0,64.9,29.94,WSW,250,5.7,5.7,58,0.00,,---,0.00,VWS V14.01,2013-06-24 19:38:00,
2013-06-24 15:43:00,80.7,65.2,29.94,WSW,255,6.8,6.8,59,0.00,,---,0.00,VWS V14.01,2013-06-24 19:43:00,
2013-06-24 15:48:00,80.5,64.7,29.95,SW,226,9.8,12.5,59,0.00,,---,0.00,VWS V14.01,2013-06-24 19:48:00,
2013-06-24 15:53:00,78.8,62.8,29.95,WNW,283,14.6,14.6,58,0.00,,---,0.00,VWS V14.01,2013-06-24 19:53:00,
2013-06-24 15:58:00,77.8,63.0,29.96,South,187,5.7,6.7,60,0.00,,---,0.00,VWS V14.01,2013-06-24 19:58:00,
2013-06-24 16:03:00,76.2,62.7,29.96,West,264,8.8,11.1,63,0.00,,---,0.00,VWS V14.01,2013-06-24 20:03:00,
2013-06-24 16:08:00,75.4,62.6,29.95,WNW,288,12.5,13.7,64,0.00,,---,0.00,VWS V14.01,2013-06-24 20:08:00,
2013-06-24 16:13:00,75.3,62.2,29.96,NNE,24,1.9,12.4,64,0.00,,---,0.00,VWS V14.01,2013-06-24 20:13:00,
2013-06-24 16:18:00,74.3,61.7,29.96,WNW,301,9.1,9.1,65,0.00,,---,0.00,VWS V14.01,2013-06-24 20:18:00,
2013-06-24 16:23:00,72.0,60.0,29.95,East,93,6.0,12.8,66,0.00,,---,0.00,VWS V14.01,2013-06-24 20:23:00,
2013-06-24 16:29:00,72.1,59.7,29.94,SW,232,7.4,11.6,65,0.00,,---,0.00,VWS V14.01,2013-06-24 20:29:00,
2013-06-24 16:34:00,73.5,59.2,29.92,West,262,8.2,9.7,61,0.00,,---,0.00,VWS V14.01,2013-06-24 20:34:00,
2013-06-24 16:39:00,73.2,56.2,29.90,SW,233,2.9,3.2,55,0.00,,---,0.00,VWS V14.01,2013-06-24 20:39:00,
2013-06-24 16:44:00,74.2,55.7,29.90,WSW,242,6.5,7.5,52,0.00,,---,0.00,VWS V14.01,2013-06-24 20:44:00,
2013-06-24 16:49:00,75.4,56.1,29.91,SW,218,5.8,9.4,51,0.00,,---,0.00,VWS V14.01,2013-06-24 20:49:00,
2013-06-24 16:54:00,75.7,56.3,29.91,SW,231,6.0,7.3,51,0.00,,---,0.00,VWS V14.01,2013-06-24 20:54:00,
2013-06-24 16:59:00,75.2,55.8,29.91,WSW,257,5.8,9.7,51,0.00,,---,0.00,VWS V14.01,2013-06-24 20:59:00,
2013-06-24 17:04:00,75.2,56.5,29.91,SSW,202,3.4,9.7,52,0.00,,---,0.00,VWS V14.01,2013-06-24 21:04:00,
2013-06-24 17:09:00,75.7,58.2,29.92,WNW,285,4.3,8.0,55,0.00,,---,0.00,VWS V14.01,2013-06-24 21:09:00,
2013-06-24 17:14:00,74.6,58.4,29.92,South,169,7.1,7.5,57,0.00,,---,0.00,VWS V14.01,2013-06-24 21:14:00,
2013-06-24 17:19:00,73.5,57.6,29.92,West,263,4.3,7.1,58,0.00,,---,0.00,VWS V14.01,2013-06-24 21:19:00,
2013-06-24 17:24:00,74.0,57.6,29.92,WSW,238,10.4,10.4,57,0.00,,---,0.00,VWS V14.01,2013-06-24 21:24:00,
2013-06-24 17:30:00,75.2,58.1,29.91,West,267,3.4,7.4,55,0.00,,---,0.00,VWS V14.01,2013-06-24 21:30:00,
2013-06-24 17:35:00,77.1,58.1,29.91,West,263,5.9,12.5,52,0.00,,---,0.00,VWS V14.01,2013-06-24 21:35:00,
2013-06-24 17:40:00,76.6,58.6,29.91,SW,221,6.7,7.8,54,0.00,,---,0.00,VWS V14.01,2013-06-24 21:40:00,
2013-06-24 17:45:00,78.1,60.4,29.91,SSW,211,6.9,8.1,55,0.00,,---,0.00,VWS V14.01,2013-06-24 21:45:00,
2013-06-24 17:50:00,78.1,60.8,29.91,WSW,248,4.6,8.5,55,0.00,,---,0.00,VWS V14.01,2013-06-24 21:50:00,
2013-06-24 17:55:00,77.4,60.2,29.91,South,177,7.0,7.5,56,45.67,,---,0.00,VWS V14.01,2013-06-24 21:55:00,
2013-06-24 18:00:00,78.1,60.9,29.91,SSW,200,5.8,7.5,56,0.00,,---,0.00,VWS V14.01,2013-06-24 22:00:00,
2013-06-24 18:06:00,78.8,62.4,29.92,West,260,5.5,6.8,57,0.00,,---,0.00,VWS V14.01,2013-06-24 22:06:00,
2013-06-24 18:11:00,79.1,62.7,29.93,SSW,198,3.4,4.9,57,0.00,,---,0.00,VWS V14.01,2013-06-24 22:11:00,
2013-06-24 18:16:00,78.1,61.8,29.93,South,180,4.0,5.0,57,0.00,,---,0.00,VWS V14.01,2013-06-24 22:16:00,
2013-06-24 18:21:00,78.9,62.7,29.93,SSW,212,1.1,3.2,58,0.00,,---,0.00,VWS V14.01,2013-06-24 22:21:00,
2013-06-24 18:26:00,78.3,62.0,29.93,WSW,250,0.4,4.2,57,0.00,,---,0.00,VWS V14.01,2013-06-24 22:26:00,
2013-06-24 18:31:00,79.1,62.3,29.93,West,259,0.8,3.6,56,0.00,,---,0.00,VWS V14.01,2013-06-24 22:31:00,
2013-06-24 18:36:00,78.8,62.0,29.93,South,187,3.7,3.7,56,0.00,,---,0.00,VWS V14.01,2013-06-24 22:36:00,
2013-06-24 18:41:00,78.3,61.9,29.92,SSE,155,2.4,5.3,57,0.00,,---,0.00,VWS V14.01,2013-06-24 22:41:00,
2013-06-24 18:46:00,78.3,62.1,29.92,SSW,195,1.4,1.6,58,0.00,,---,0.00,VWS V14.01,2013-06-24 22:46:00,
2013-06-24 18:51:00,79.2,63.0,29.92,WSW,257,0.9,1.9,58,0.00,,---,0.00,VWS V14.01,2013-06-24 22:51:00,
2013-06-24 18:56:00,78.7,62.6,29.92,SW,219,3.2,3.2,58,0.00,,---,0.00,VWS V14.01,2013-06-24 22:56:00,
2013-06-24 19:01:00,79.3,63.5,29.93,WSW,249,3.0,3.2,58,0.00,,---,0.00,VWS V14.01,2013-06-24 23:01:00,
2013-06-24 19:06:00,78.2,62.9,29.93,WNW,302,1.2,2.2,59,0.00,,---,0.00,VWS V14.01,2013-06-24 23:06:00,
2013-06-24 19:11:00,78.3,63.8,29.92,WNW,292,2.1,3.8,61,0.00,,---,0.00,VWS V14.01,2013-06-24 23:11:00,
2013-06-24 19:16:00,77.1,64.2,29.95,WNW,294,14.9,17.0,64,0.00,,---,0.00,VWS V14.01,2013-06-24 23:16:00,
2013-06-24 19:21:00,77.8,64.7,29.94,West,278,5.5,7.0,64,0.00,,---,0.00,VWS V14.01,2013-06-24 23:21:00,
2013-06-24 19:26:00,77.5,64.3,29.93,West,270,2.4,3.4,64,0.00,,---,0.00,VWS V14.01,2013-06-24 23:26:00,
2013-06-24 19:31:00,77.0,63.7,29.93,WSW,257,2.5,3.4,64,0.00,,---,0.00,VWS V14.01,2013-06-24 23:31:00,
2013-06-24 19:37:00,77.2,64.1,29.93,West,278,5.3,6.1,64,0.00,,---,0.00,VWS V14.01,2013-06-24 23:37:00,
2013-06-24 19:42:00,77.4,64.4,29.93,NW,312,2.6,5.3,64,0.00,,---,0.00,VWS V14.01,2013-06-24 23:42:00,
2013-06-24 19:47:00,76.4,63.2,29.92,WSW,239,4.3,5.0,64,0.00,,---,0.00,VWS V14.01,2013-06-24 23:47:00,
2013-06-24 19:52:00,77.3,64.1,29.93,SW,236,3.0,4.2,64,0.00,,---,0.00,VWS V14.01,2013-06-24 23:52:00,
2013-06-24 19:57:00,77.0,64.0,29.93,SW,236,2.0,4.2,64,0.00,,---,0.00,VWS V14.01,2013-06-24 23:57:00,
2013-06-24 20:02:00,77.0,64.1,29.92,WSW,250,1.9,2.8,64,0.00,,---,0.00,VWS V14.01,2013-06-25 00:02:00,
2013-06-24 20:07:00,76.3,63.6,29.92,NW,321,2.3,2.3,65,0.00,,---,0.00,VWS V14.01,2013-06-25 00:07:00,
2013-06-24 20:12:00,75.9,63.5,29.92,WSW,253,3.4,3.4,65,0.00,,---,0.00,VWS V14.01,2013-06-25 00:12:00,
2013-06-24 20:17:00,76.6,64.3,29.92,West,274,2.2,3.1,66,0.00,,---,0.00,VWS V14.01,2013-06-25 00:17:00,
2013-06-24 20:22:00,76.0,64.0,29.92,WNW,291,2.0,2.3,66,0.00,,---,0.00,VWS V14.01,2013-06-25 00:22:00,
2013-06-24 20:27:00,76.3,64.5,29.92,WNW,287,0.0,1.0,67,0.00,,---,0.00,VWS V14.01,2013-06-25 00:27:00,
2013-06-24 20:32:00,76.1,64.4,29.92,SW,214,0.0,2.8,67,0.00,,---,0.00,VWS V14.01,2013-06-25 00:32:00,
2013-06-24 20:38:00,75.9,64.4,29.92,SW,231,4.5,5.3,68,0.00,,---,0.00,VWS V14.01,2013-06-25 00:38:00,
2013-06-24 20:43:00,75.7,64.2,29.93,SSW,207,0.2,3.9,67,0.00,,---,0.00,VWS V14.01,2013-06-25 00:43:00,
2013-06-24 20:48:00,75.9,64.4,29.93,SSW,210,0.5,2.4,68,0.00,,---,0.00,VWS V14.01,2013-06-25 00:48:00,
2013-06-24 20:53:00,75.5,64.1,29.93,West,277,1.5,2.1,68,0.00,,---,0.00,VWS V14.01,2013-06-25 00:53:00,
2013-06-24 20:58:00,75.9,64.6,29.93,West,276,2.2,3.1,68,0.00,,---,0.00,VWS V14.01,2013-06-25 00:58:00,
2013-06-24 21:03:00,75.8,64.6,29.93,WSW,252,0.0,1.1,68,0.00,,---,0.00,VWS V14.01,2013-06-25 01:03:00,
2013-06-24 21:08:00,75.4,64.4,29.93,NNW,336,0.0,0.0,69,0.00,,---,0.00,VWS V14.01,2013-06-25 01:08:00,
2013-06-24 21:13:00,75.8,65.0,29.93,NNW,336,0.0,0.0,69,0.00,,---,0.00,VWS V14.01,2013-06-25 01:13:00,
2013-06-24 21:18:00,74.9,64.1,29.94,WNW,288,3.1,3.1,69,0.00,,---,0.00,VWS V14.01,2013-06-25 01:18:00,
2013-06-24 21:23:00,75.0,64.3,29.95,West,276,3.4,4.3,69,0.00,,---,0.00,VWS V14.01,2013-06-25 01:23:00,
2013-06-24 21:28:00,74.7,63.9,29.94,SE,141,2.2,3.5,69,0.00,,---,0.00,VWS V14.01,2013-06-25 01:28:00,
2013-06-24 21:33:00,74.9,63.8,29.94,WNW,284,2.4,3.2,68,0.00,,---,0.00,VWS V14.01,2013-06-25 01:33:00,
2013-06-24 21:38:00,75.8,64.4,29.94,West,281,1.6,2.0,68,0.00,,---,0.00,VWS V14.01,2013-06-25 01:38:00,
2013-06-24 21:44:00,74.8,63.1,29.95,WSW,239,0.5,3.6,67,0.00,,---,0.00,VWS V14.01,2013-06-25 01:44:00,
2013-06-24 21:49:00,75.4,63.4,29.95,WSW,239,2.2,2.2,66,0.00,,---,0.00,VWS V14.01,2013-06-25 01:49:00,
2013-06-24 21:54:00,75.3,63.0,29.96,NW,311,3.5,3.9,66,0.00,,---,0.00,VWS V14.01,2013-06-25 01:54:00,
2013-06-24 21:59:00,75.9,63.7,29.95,SW,235,1.4,3.0,66,0.00,,---,0.00,VWS V14.01,2013-06-25 01:59:00,
2013-06-24 22:04:00,74.6,62.6,29.95,SW,232,1.1,3.2,66,0.00,,---,0.00,VWS V14.01,2013-06-25 02:04:00,
2013-06-24 22:09:00,75.8,63.8,29.95,SW,235,3.0,4.6,66,0.00,,---,0.00,VWS V14.01,2013-06-25 02:09:00,
2013-06-24 22:14:00,74.8,62.7,29.94,NW,307,0.0,4.2,66,0.00,,---,0.00,VWS V14.01,2013-06-25 02:14:00,
2013-06-24 22:19:00,74.5,62.1,29.94,West,281,5.3,6.5,65,0.00,,---,0.00,VWS V14.01,2013-06-25 02:19:00,
2013-06-24 22:24:00,74.7,62.2,29.94,WNW,300,3.5,3.5,65,0.00,,---,0.00,VWS V14.01,2013-06-25 02:24:00,
2013-06-24 22:29:00,73.9,61.4,29.94,NW,322,3.8,4.2,65,0.00,,---,0.00,VWS V14.01,2013-06-25 02:29:00,
2013-06-24 22:34:00,74.4,62.2,29.94,NNW,345,2.5,2.6,66,0.00,,---,0.00,VWS V14.01,2013-06-25 02:34:00,
2013-06-24 22:39:00,73.7,61.7,29.94,NNE,15,4.9,4.9,66,0.00,,---,0.00,VWS V14.01,2013-06-25 02:39:00,
2013-06-24 22:44:00,73.6,61.9,29.93,North,350,4.1,4.1,67,0.00,,---,0.00,VWS V14.01,2013-06-25 02:44:00,
2013-06-24 22:49:00,73.6,62.2,29.93,SW,225,3.0,4.2,67,0.00,,---,0.00,VWS V14.01,2013-06-25 02:49:00,
2013-06-24 22:54:00,72.6,61.2,29.93,WNW,290,1.9,2.1,67,0.00,,---,0.00,VWS V14.01,2013-06-25 02:54:00,
2013-06-24 22:59:00,73.1,61.8,29.93,WNW,284,2.2,2.8,68,0.00,,---,0.00,VWS V14.01,2013-06-25 02:59:00,
2013-06-24 23:05:00,72.9,61.7,29.93,NW,312,3.8,4.1,68,0.00,,---,0.00,VWS V14.01,2013-06-25 03:05:00,
2013-06-24 23:10:00,72.8,61.8,29.93,NNW,330,2.7,2.8,68,0.00,,---,0.00,VWS V14.01,2013-06-25 03:10:00,
2013-06-24 23:15:00,73.2,62.3,29.93,NW,308,0.0,0.0,69,0.00,,---,0.00,VWS V14.01,2013-06-25 03:15:00,
2013-06-24 23:20:00,72.0,61.3,29.93,NW,308,0.0,0.0,69,0.00,,---,0.00,VWS V14.01,2013-06-25 03:20:00,
2013-06-24 23:25:00,72.1,63.0,29.93,NE,52,1.8,1.9,73,0.00,,---,0.00,VWS V14.01,2013-06-25 03:25:00,
2013-06-24 23:30:00,71.1,62.2,29.94,North,357,0.0,0.0,74,0.00,,---,0.00,VWS V14.01,2013-06-25 03:30:00,
2013-06-24 23:35:00,71.1,62.7,29.94,North,357,0.0,0.0,75,0.00,,---,0.00,VWS V14.01,2013-06-25 03:35:00,
2013-06-24 23:40:00,70.5,62.8,29.94,NNW,345,2.7,2.9,77,0.00,,---,0.00,VWS V14.01,2013-06-25 03:40:00,
2013-06-24 23:45:00,70.5,63.0,29.94,NW,318,1.9,2.1,77,0.00,,---,0.00,VWS V14.01,2013-06-25 03:45:00,
2013-06-24 23:50:00,70.2,62.1,29.94,NW,322,4.1,4.1,76,0.00,,---,0.00,VWS V14.01,2013-06-25 03:50:00,
2013-06-24 23:55:00,71.0,61.7,29.94,NNE,27,4.0,4.6,72,0.00,,---,0.00,VWS V14.01,2013-06-25 03:55:00,